Location: La Bastide
(43.1661°N, 1.2755°E)
Time: 08:25:03
(UTC+00:00)

Cosmos 1953 Rocket - Pass Details

Date: 17 March 2026
Orbit: 599 x 626 km, 82.5° (Epoch: 18 April)

Event Time Altitude Azimuth Distance (km) Brightness Sun altitude
Rises 19:59:47 0° 235° (SW) 2,836 7.4 -21.6°
Reaches altitude 10° 20:03:06 10° 263° (W) 1,942 7.0 -22.2°
Maximum altitude 20:05:10 13° 292° (WNW) 1,743 6.9 -22.5°
Drops below altitude 10° 20:07:14 10° 321° (NW) 1,953 6.9 -22.9°
Sets 20:10:37 0° 349° (N) 2,867 7.4 -23.5°
